FW7611 Weather Reports


Display with metric or nautical units.
time (UTC)temp
F
wind
direction
speed
MPH
gust
MPH
rain 1hr
in
rain 24hr
in
rain mn
in
humidity
%
barometer
mb
20260506140037 64 242 1.0 4.0 0.00 0.00 0.00 73 1014.7
20260506134535 64 245 1.0 7.0 0.00 0.00 0.00 73 1014.7
20260506133035 64 168 0.0 3.0 0.00 0.00 0.00 73 1014.9
20260506131552 64 194 1.0 9.0 0.00 0.00 0.00 72 1014.9
20260506130041 63 203 1.0 9.0 0.00 0.00 0.00 74 1014.8
20260506124536 62 281 1.0 5.0 0.00 0.00 0.00 76 1014.5
20260506123034 62 156 2.0 4.0 0.00 0.00 0.00 75 1015.0
20260506121541 62 223 2.0 6.0 0.00 0.00 0.00 75 1015.1
20260506120041 61 229 1.0 6.0 0.00 0.00 0.00 75 1015.3
20260506114540 61 242 1.0 4.0 0.00 0.00 0.00 76 1015.1
20260506113040 61 198 1.0 7.0 0.00 0.00 0.00 76 1014.7
20260506111537 61 138 1.0 3.0 0.00 0.00 0.00 76 1014.5
20260506110044 60 182 0.0 2.0 0.00 0.00 0.00 76 1014.8
20260506104548 60 250 0.0 3.0 0.00 0.00 0.00 76 1014.4
20260506103042 61 179 1.0 4.0 0.00 0.00 0.00 75 1014.2
20260506101540 61 241 1.0 5.0 0.00 0.00 0.00 75 1014.0
20260506100039 61 238 0.0 4.0 0.00 0.00 0.00 75 1014.1
20260506094547 61 218 1.0 5.0 0.00 0.00 0.00 75 1014.0
20260506093039 61 233 1.0 3.0 0.00 0.00 0.00 75 1014.4
20260506091541 61 158 1.0 4.0 0.00 0.00 0.00 75 1014.4
20260506090040 62 195 2.0 6.0 0.00 0.00 0.00 74 1014.4
20260506084543 62 167 1.0 5.0 0.00 0.00 0.00 74 1014.6
20260506083038 62 221 2.0 6.0 0.00 0.00 0.00 73 1014.6
20260506081537 63 222 1.0 5.0 0.00 0.00 0.00 72 1014.7
20260506073041 63 259 1.0 11.0 0.00 0.00 0.00 71 1014.9
20260506071545 63 242 2.0 7.0 0.00 0.00 0.00 70 1014.5
20260506061541 63 212 1.0 5.0 0.00 0.00 0.00 68 1015.0
20260506044543 65 180 2.0 10.0 0.00 0.00 0.00 60 1015.2
20260506043041 66 209 3.0 8.0 0.00 0.00 0.00 59 1015.0
20260506041557 66 274 1.0 9.0 0.00 0.00 0.00 57 1015.1
20260506040038 66 188 2.0 11.0 0.00 0.00 0.00 56 1015.2
20260506034543 66 205 0.0 6.0 0.00 0.00 0.00 55 1015.0
20260506033043 66 203 1.0 5.0 0.00 0.00 0.00 55 1014.9
20260506031546 65 213 1.0 5.0 0.00 0.00 0.00 56 1015.0
20260506030040 64 202 0.0 3.0 0.00 0.00 0.00 58 1015.2
20260506024547 63 213 0.0 2.0 0.00 0.00 0.00 59 1015.3
20260506023036 63 0 0.0 2.0 0.00 0.00 0.00 60 1015.3
20260506021533 63 0 0.0 2.0 0.00 0.00 0.00 59 1015.3
20260506020040 64 0 0.0 1.0 0.00 0.00 0.00 58 1015.4
20260506014543 64 0 0.0 0.0 0.00 0.00 0.00 59 1015.4
20260506013037 64 0 0.0 0.0 0.00 0.00 0.00 59 1015.3
20260506011540 65 0 0.0 2.0 0.00 0.00 0.00 57 1015.1
20260506010036 66 0 0.0 2.0 0.00 0.00 0.00 55 1015.0
20260506004541 68 0 0.0 1.0 0.00 0.00 0.00 52 1015.0
20260506003041 69 0 0.0 2.0 0.00 0.00 0.00 49 1014.9
20260506001541 71 205 0.0 2.0 0.00 0.00 0.00 46 1014.8
20260506000040 72 184 0.0 3.0 0.00 0.00 0.00 43 1014.7
20260505234541 73 188 1.0 3.0 0.00 0.00 0.00 42 1014.6
20260505233038 74 226 1.0 4.0 0.00 0.00 0.00 40 1014.6
20260505231549 75 211 1.0 6.0 0.00 0.00 0.00 39 1014.3
20260505230053 75 244 1.0 6.0 0.00 0.00 0.00 39 1014.3
20260505224541 75 202 2.0 10.0 0.00 0.00 0.00 38 1014.2
20260505223040 76 239 3.0 11.0 0.00 0.00 0.00 37 1014.3
20260505221540 76 169 2.0 7.0 0.00 0.00 0.00 37 1014.4
20260505220036 76 205 2.0 7.0 0.00 0.00 0.00 36 1014.5
20260505214534 77 266 2.0 8.0 0.00 0.00 0.00 36 1014.5
20260505213051 78 221 4.0 10.0 0.00 0.00 0.00 35 1014.6
20260505211544 78 178 2.0 7.0 0.00 0.00 0.00 36 1014.6
20260505210038 78 290 2.0 9.0 0.00 0.00 0.00 35 1014.6
20260505204540 77 238 3.0 11.0 0.00 0.00 0.00 35 1015.1
20260505203035 77 271 2.0 8.0 0.00 0.00 0.00 34 1015.1
20260505201534 77 256 2.0 12.0 0.00 0.00 0.00 36 1015.2
20260505200043 77 249 3.0 15.0 0.00 0.00 0.00 36 1015.3
20260505194540 78 220 3.0 13.0 0.00 0.00 0.00 36 1015.3
20260505193039 77 154 3.0 10.0 0.00 0.00 0.00 34 1015.7
20260505191548 78 208 2.0 11.0 0.00 0.00 0.00 35 1015.8
20260505190036 78 250 4.0 16.0 0.00 0.00 0.00 34 1016.0
20260505184535 76 229 4.0 11.0 0.00 0.00 0.00 34 1016.2
20260505183040 78 299 3.0 10.0 0.00 0.00 0.00 35 1016.7
20260505181536 78 313 3.0 12.0 0.00 0.00 0.00 37 1016.7
20260505180045 76 269 3.0 10.0 0.00 0.00 0.00 36 1016.7
20260505174544 76 193 3.0 13.0 0.00 0.00 0.00 36 1016.8
20260505173035 76 239 3.0 10.0 0.00 0.00 0.00 38 1016.8
20260505171544 76 311 3.0 7.0 0.00 0.00 0.00 41 1017.1
20260505170040 75 242 1.0 7.0 0.00 0.00 0.00 39 1017.2
20260505164542 75 63 1.0 11.0 0.00 0.00 0.00 41 1017.4
20260505163035 75 235 1.0 4.0 0.00 0.00 0.00 39 1017.4
20260505161534 74 238 1.0 5.0 0.00 0.00 0.00 42 1017.6
20260505153040 72 284 1.0 8.0 0.00 0.00 0.00 52 1017.9
20260505151536 72 198 2.0 10.0 0.00 0.00 0.00 52 1018.0